Location: Castillon
(43.0896°N, 0.2156°E)
Time: 19:47:11
(UTC+00:00)

Cosmos 2219 Rocket - Pass Details

Date: 16 June 2021
Orbit: 829 x 845 km, 71.0° (Epoch: 02 August)

Event Time Altitude Azimuth Distance (km) Brightness Sun altitude
Exits shadow 23:06:04 16° 234° (SW) 2,098 4.0 -22.4°
Maximum altitude 23:10:24 44° 301° (WNW) 1,153 3.1 -22.6°
Drops below altitude 10° 23:15:50 10° 13° (NNE) 2,473 5.5 -22.8°
Sets 23:18:25 0° 20° (NNE) 3,410 6.3 -22.8°
